Weather History for South Lake Tahoe, CA

Change the Weather History Date:

Tuesday, February 4, 2014

  Actual Average Record
Temperature  
Mean Temperature 22 °F 30 °F  
Max Temperature 36 °F 43 °F 55 °F (2007)
Min Temperature 7 °F 17 °F -3 °F (1969)
Degree Days  
Heating Degree Days 43 35  
Month to date heating degree days 171 140  
Since 1 July heating degree days 4012 4422  
Cooling Degree Days 0 0  
Month to date cooling degree days 0 0  
Year to date cooling degree days 0 0  
Moisture  
Dew Point 12 °F    
Average Humidity 58    
Maximum Humidity 81    
Minimum Humidity 35    
Precipitation  
Precipitation 0.00 in - 3.66 in (1937)
Month to date precipitation 0.06  
Year to date precipitation 2.33  
Sea Level Pressure  
Sea Level Pressure 30.05 in    
Wind  
Wind Speed 2 mph (South)    
Max Wind Speed 14 mph    
Max Gust Speed 16 mph    
Visibility 10 miles    
Events      
T = Trace of Precipitation, MM = Missing Value Source: NWS Daily Summary

Daily Weather History Graph

Daily Weather History Graph

Search for Another Location

Airport:

Trip Planner

Search our weather history database for the weather conditions in past years. The results will help you decide how hot, cold, wet, or windy it might be!

Date:

Astronomy

Feb. 04, 2014 Rise Set
Actual Time 7:03 AM PST 5:25 PM PST
Civil Twilight 6:35 AM PST 5:52 PM PST
Nautical Twilight 6:03 AM PST 6:24 PM PST
Astronomical Twilight 5:32 AM PST 6:55 PM PST
Moon 9:47 AM PST (2/4) 11:20 PM PST (2/4)
Length of Visible Light 11h 17m
Length of Day
10h 21m
Waxing Crescent, 30% of the Moon is Illuminated
Feb 4
Waxing Crescent
Feb 6
First Quarter
Feb 14
Full
Feb 22
Last Quarter
Mar 1
New

Hourly Weather History & Observations

Time (PST) Temp. Windchill Dew Point Humidity Pressure Visibility Wind Dir Wind Speed Gust Speed Precip Events Conditions
12:53 AM 17.1 °F - 10.0 °F 74% 29.98 in 10.0 mi Calm Calm - N/A   Clear
1:53 AM 19.0 °F 13.9 °F 12.0 °F 74% 29.97 in 10.0 mi Variable 3.5 mph - N/A   Clear
2:53 AM 16.0 °F - 10.0 °F 77% 29.99 in 10.0 mi Calm Calm - N/A   Clear
3:53 AM 10.9 °F - 5.0 °F 77% 30.01 in 10.0 mi Calm Calm - N/A   Clear
4:53 AM 15.1 °F - 9.0 °F 77% 30.01 in 10.0 mi Calm Calm - N/A   Clear
5:53 AM 10.0 °F 3.6 °F 3.0 °F 73% 30.05 in 10.0 mi SSW 3.5 mph - N/A   Clear
6:53 AM 8.1 °F 1.4 °F 1.0 °F 73% 30.10 in 10.0 mi SSW 3.5 mph - N/A   Clear
7:53 AM 9.0 °F 2.4 °F 1.9 °F 73% 30.11 in 10.0 mi SSW 3.5 mph - N/A   Clear
8:53 AM 15.1 °F - 10.9 °F 84% 30.11 in 10.0 mi Calm Calm - N/A   Clear
9:53 AM 25.0 °F - 15.1 °F 66% 30.08 in 10.0 mi Calm Calm - N/A   Clear
10:53 AM 30.0 °F 26.5 °F 12.9 °F 49% 30.07 in 10.0 mi South 3.5 mph - N/A   Clear
11:53 AM 33.1 °F 30.0 °F 10.0 °F 38% 30.03 in 10.0 mi SSE 3.5 mph - N/A   Clear
12:53 PM 34.0 °F - 10.0 °F 37% 30.01 in 10.0 mi Calm Calm - N/A   Clear
1:53 PM 35.1 °F 32.2 °F 10.9 °F 37% 29.98 in 10.0 mi SSE 3.5 mph - N/A   Clear
2:53 PM 36.0 °F 29.6 °F 14.0 °F 41% 29.98 in 10.0 mi SSW 8.1 mph - N/A   Clear
3:53 PM 34.0 °F 27.2 °F 16.0 °F 48% 30.01 in 10.0 mi SSW 8.1 mph - N/A   Clear
4:53 PM 30.9 °F 26.2 °F 19.0 °F 61% 30.02 in 10.0 mi SSW 4.6 mph - N/A   Clear
5:53 PM 28.0 °F 24.2 °F 18.0 °F 66% 30.06 in 10.0 mi SSW 3.5 mph - N/A   Clear
6:53 PM 25.0 °F - 18.0 °F 75% 30.10 in 10.0 mi Calm Calm - N/A   Clear
7:53 PM 23.0 °F - 17.1 °F 78% 30.12 in 10.0 mi Calm Calm - N/A   Partly Cloudy
8:53 PM 21.0 °F - 16.0 °F 81% 30.12 in 10.0 mi Calm Calm - N/A   Clear
9:53 PM 19.9 °F - 14.0 °F 78% 30.09 in 10.0 mi Calm Calm - N/A   Partly Cloudy
10:53 PM 19.9 °F - 14.0 °F 78% 30.08 in 10.0 mi Calm Calm - N/A   Mostly Cloudy
11:53 PM 19.9 °F - 14.0 °F 78% 30.06 in 10.0 mi Calm Calm - N/A   Partly Cloudy